User: anonymous   Login
Location: Unspecified
(0.0000°N, 0.0000°E)
Time: 11:40:38
(UTC+00:00)
Language:

CZ-3C DEB - Orbit

View from above orbital plane
View from above orbital plane
View from above satellite
View from above satellite

Ground track
Ground track

The orbit is defined by the following mean orbital elements,

1 48543U 10057BN  24272.29199459  .00002630  00000-0  62661-2 0  9996
2 48543  21.4669 326.7114 7036307 279.4978  13.5684  2.50539765 92167
Epoch (UTC): 28 September 2024 07:00:28
Eccentricity: 0.7036307
inclination: 21.4669°
perigee height: 408 km
apogee height: 32633 km
right ascension of ascending node: 326.7114°
argument of perigee: 279.4978°
revolutions per day: 2.50539765
mean anomaly at epoch: 13.5684°

The dashed part of the orbit path shows where the satellite is in the earth's shadow,  

DLR